Location: Trois-Rivi�res
(46.3500°N, 72.5500°W)
Time: 09:45:28
(UTC-04:00)

ISS - Pass Details

Date: 09 October 2017
Orbit: 401 x 408 km, 51.6° (Epoch: 23 October)

Event Time Altitude Azimuth Distance (km) Brightness Sun altitude
Rises 18:57:06 0° 294° (WNW) 2,326 1.4 -8.2°
Reaches altitude 10° 18:59:16 10° 302° (WNW) 1,467 0.0 -8.6°
Maximum altitude 19:02:22 38° 13° (NNE) 642 -2.9 -9.1°
Enters shadow 19:04:56 14° 79° (E) 1,265 -2.0 -9.5°
